Location: Menziken
(47.2425°N, 8.1905°E)
Time: 16:59:14
(UTC+00:00)

Daily predictions for brighter satellites

Satellite Brightness Start Highest point End
(mag) Time Altitude Azimuth Time Altitude Azimuth Time Altitude Azimuth
Cosmos 1805 Rocket 4.1 16:15:46 10° N 16:19:50 37° ENE 16:23:54 10° SE
Cosmos 1743 Rocket 3.6 16:15:48 10° N 16:20:11 90° SW 16:24:34 10° S
Okean-O 3.5 16:17:02 10° SE 16:20:50 29° ENE 16:24:40 10° N
Cosmos 1867 3.9 16:17:30 10° SW 16:22:58 72° NW 16:28:28 10° NE
Cosmos 1455 3.8 16:19:49 10° SW 16:23:18 36° WNW 16:26:49 10° N
CORIOLIS 4.4 16:18:43 10° SE 16:23:51 47° ENE 16:29:03 10° N
CZ-4B R/B 3.5 16:23:32 10° N 16:26:28 28° WNW 16:29:26 10° SW
Cosmos 1980 Rocket 3.9 16:25:44 10° ESE 16:28:20 13° E 16:30:56 10° ENE
Cosmos 2233 Rocket 4.0 16:22:30 10° N 16:28:53 83° E 16:35:10 10° S
Cosmos 1340 Rocket 4.5 16:26:25 10° SW 16:30:10 36° WNW 16:33:58 10° N
Cosmos 2297 Rocket 2.2 16:26:05 10° NNW 16:31:46 73° ENE 16:37:25 10° SSE
Cosmos 2227 Rocket 2.2 16:26:20 10° NNW 16:32:01 68° ENE 16:37:39 10° SE
Cosmos 1538 Rocket 4.1 16:28:11 10° S 16:33:20 58° ESE 16:38:35 10° NNE
USA 215 4.0 16:28:01 10° ENE 16:33:57 38° N 16:39:52 10° WNW
Cosmos 1869 3.6 16:32:39 10° SSE 16:36:26 45° E 16:40:12 10° NNE
Cosmos 1943 Rocket 4.5 16:34:31 10° WNW 16:37:26 14° NW 16:40:22 10° N
Cosmos 1689 Rocket 4.2 16:35:20 10° N 16:38:02 29° WNW 16:40:43 10° SW
PSLV R/B 4.0 16:36:15 10° NNE 16:40:30 89° ESE 16:44:42 10° SSW
Meteor 2-20 4.5 16:35:18 10° S 16:41:18 61° E 16:47:22 10° NNE
USA 229 DEB 3.7 16:35:08 10° SSW 16:41:39 71° SE 16:48:31 10° NE
USA 229 3.7 16:35:16 10° SSW 16:41:46 70° SE 16:48:36 10° NE
Cosmos 1356 Rocket 3.7 16:39:28 10° SSE 16:43:27 46° E 16:47:31 10° NNE
Cosmos 1500 Rocket 4.3 16:39:41 10° NNW 16:44:00 56° W 16:48:13 10° S
Okean O Rocket 3.5 16:41:12 10° SSW 16:45:14 35° W 16:49:17 10° NNW
NOSS 3-1 (C) 3.4 16:40:40 10° SSW 16:46:08 68° SE 16:52:29 10° NE
NOSS 3-1 (A) 3.7 16:41:50 10° S 16:47:03 45° ESE 16:52:59 10° NE
Cosmos 1633 Rocket 3.7 16:43:46 10° N 16:47:46 33° ENE 16:51:45 10° SE
Cosmos 2344 4.1 16:40:33 10° WSW 16:47:56 59° NW 16:56:23 10° NE
Genesis I 4.2 16:45:00 10° WSW 16:48:51 45° NW 16:52:43 10° NNE
Cosmos 1238 Rocket 3.5 16:46:03 10° NNW 16:50:17 57° W 16:53:47 10° S
Cosmos 2263 Rocket 3.6 16:47:16 10° N 16:51:00 18° NE 16:53:24 14° ENE
H-2A R/B 2.6 16:47:45 10° SSE 16:51:36 78° ENE 16:55:25 10° N
Cosmos 2369 4.2 16:48:30 10° S 16:53:45 41° ESE 16:59:03 10° NE
SeaSat 1 2.6 16:50:11 10° SE 16:54:58 53° NE 16:59:47 10° NNW
Cosmos 1464 Rocket 4.0 16:48:57 10° N 16:55:00 54° ENE 17:00:59 10° SSE
AQUARIUS 4.2 16:50:32 10° SSE 16:55:02 89° E 16:59:34 10° NNW
Cosmos 1607 4.4 16:50:15 10° NW 16:56:25 67° WSW 17:02:37 10° SSE
Sich 1 3.0 16:52:48 10° N 16:57:08 65° ENE 17:01:29 10° SSE
Lacrosse 4 Rocket 1.7 16:53:21 10° S 16:57:12 43° ESE 17:00:16 15° NE
Envisat 3.1 16:52:43 10° SE 16:57:38 53° ENE 17:02:35 10° N
NOAA 12 4.1 16:52:49 10° SSE 16:58:05 66° ENE 17:03:23 10° N
Cosmos 724 4.5 16:53:08 10° NNW 16:58:50 50° NE 17:04:26 10° ESE
Cosmos 1151 Rocket 4.0 16:57:00 10° SE 17:00:34 25° E 17:04:01 11° NE
Cosmos 1666 Rocket 3.6 16:56:54 10° N 17:01:12 52° ENE 17:05:25 10° SSE
Cosmos 2082 3.6 16:55:50 10° NNW 17:01:29 73° ENE 17:07:05 10° SSE
CZ-4 R/B 2.1 16:57:54 10° SE 17:01:35 32° ENE 17:05:13 10° N
GEOS 3 Rocket 3.8 16:56:55 11° NE 17:01:50 58° SE 17:07:01 10° SSW
COSMO-SKYMED 1 3.3 16:58:04 10° NNE 17:01:58 31° E 17:05:50 10° SSE
ATLAS 5 CENTAUR R/B 3.0 16:56:24 10° NW 17:02:08 63° SW 17:08:40 10° SSE
Cosmos 1328 Rocket 4.4 17:00:04 10° SSE 17:03:53 29° E 17:07:43 10° NNE
ERBS 2.2 17:01:22 10° SW 17:04:41 72° SE 17:06:38 23° ENE
Cosmos 1072 Rocket 4.4 16:59:02 10° N 17:05:10 70° E 17:11:20 10° SSE
Cosmos 1633 2.5 17:01:49 10° N 17:05:27 61° E 17:09:02 10° SSE
Cosmos 1697 Rocket 3.0 17:01:02 10° S 17:06:25 47° ESE 17:11:31 12° NE
Cosmos 1939 Rocket 4.4 17:12:10 19° NE 17:12:10 19° NE 17:14:24 10° NNE
Cosmos 2278 4.1 17:07:19 10° S 17:12:38 43° ESE 17:17:01 15° NE
Cosmos 1371 Rocket 4.3 17:11:01 10° NNW 17:16:00 43° ENE 17:20:55 10° SE
Cosmos 2221 4.3 17:12:55 10° SW 17:16:49 32° WNW 17:20:46 10° N
CENTAUR R/B 4.2 17:13:15 10° NW 17:19:00 24° N 17:23:14 16° NE
Geosat 3.9 17:18:57 12° NNE 17:23:41 73° ESE 17:28:42 10° SSW
NOSS 2-3 (C) 3.8 17:22:13 10° SSW 17:26:28 54° ESE 17:28:59 26° ENE
Cosmos 1656 3.8 17:22:53 10° SSW 17:28:25 72° WNW 17:33:55 10° NNE
YAOGAN 1 2.7 17:24:41 10° SE 17:28:51 49° ENE 17:33:02 10° N
Cosmos 2112 Rocket 4.1 17:25:52 10° S 17:30:54 54° ESE 17:34:25 20° NE
Cosmos 1862 3.3 17:27:43 10° N 17:31:44 82° W 17:35:42 10° S
Cosmos 1470 Rocket 3.7 17:27:55 10° N 17:32:19 51° ENE 17:36:41 10° SSE
Meteor 2-11 Rocket 4.3 17:27:23 10° N 17:33:32 74° E 17:39:40 10° SSE
Cosmos 2346 Rocket 4.5 17:28:52 10° SSE 17:34:56 57° E 17:40:58 10° NNE
YAOGAN 6 2.3 17:33:03 10° SSE 17:36:33 83° ENE 17:40:03 10° N
Cosmos 1680 Rocket 3.4 17:32:14 10° SSW 17:37:24 71° ESE 17:41:27 17° NNE
COBE Rocket 4.3 17:33:52 10° N 17:38:37 61° WNW 17:43:13 10° SSW
ATLAS 3B R/B 4.1 17:34:10 10° NW 17:38:55 20° N 17:41:17 17° NE
Ariane Rocket 3.6 17:40:34 34° ENE 17:40:41 34° ENE 17:45:14 10° N
NOAA 11 4.3 17:37:23 10° SE 17:42:34 49° ENE 17:47:49 10° N
CSL-04 Debris 4.1 17:39:10 10° SSE 17:44:37 74° ENE 17:50:07 10° NNW
SKYMED 2 3.5 17:45:53 10° NNE 17:50:15 85° WNW 17:54:36 10° SSW
Cosmos 2034 Rocket 4.1 17:46:53 10° N 17:53:16 80° W 17:59:37 10° S
Okean-O 4.4 17:53:14 10° SSW 17:57:14 33° W 18:01:16 10° NNW
CSL-04 Rocket 3.6 17:54:15 10° SSE 17:59:36 87° WSW 18:04:57 10° NNW
H-2A R/B 4.2 18:07:13 13° NNE 18:07:13 13° NNE 18:07:59 10° N
Cosmos 1624 Rocket 4.0 18:01:50 10° NNW 18:07:13 85° WSW 18:11:42 15° SSE
Cosmos 2056 Rocket 3.4 18:02:42 10° NNW 18:07:51 86° WSW 18:11:21 21° SSE
SL-16 R/B 4.3 18:03:18 10° SSE 18:03:46 12° SSE 18:03:46 12° SSE
Cosmos 1980 Rocket 2.1 18:05:44 10° SSW 18:11:24 83° ESE 18:13:24 42° NNE
Cosmos 1634 Rocket 3.8 18:06:26 10° N 18:12:37 67° E 18:18:44 10° SSE
USA 215 3.4 18:14:46 47° ENE 18:16:18 58° NNE 18:22:41 10° NW
Tsikada Rocket 4.1 18:12:49 10° S 18:19:12 82° W 18:25:40 10° N
Cosmos 2142 Rocket 4.5 18:14:06 10° N 18:20:26 60° ENE 18:21:00 58° E
BREEZE-M DEB (TANK) 3.3 18:23:59 10° WNW 18:28:05 43° WNW 18:28:05 43° WNW
NOSS 2-3 (E) 4.4 18:25:12 10° WSW 18:29:35 52° NW 18:30:19 47° N
Cosmos 2279 Rocket 4.5 18:27:23 10° N 18:31:41 43° NNE 18:31:41 43° NNE
Cosmos 2263 Rocket 2.2 18:30:15 10° NNW 18:35:09 67° N 18:35:09 67° N
Lacrosse 4 Rocket 3.3 18:32:43 10° W 18:36:03 24° NW 18:36:36 23° NNW
CZ-4 R/B 3.6 18:33:09 10° SSW 18:36:37 25° W 18:40:04 10° NW
NOSS 3-1 (A) 4.3 18:32:29 10° WSW 18:37:58 44° NW 18:40:26 31° NNE
COSMO-SKYMED 1 4.4 18:34:19 10° N 18:38:04 29° WNW 18:41:48 10° SW
Cosmos 1697 Rocket 4.2 18:45:31 10° WSW 18:50:35 33° NW 18:53:17 22° N
CENTAUR R/B 3.7 19:04:29 10° NW 19:10:25 41° N 19:10:25 41° N
USA 238 DEB 4.3 19:17:55 10° NW 19:23:08 51° NNW 19:23:08 51° NNW
USA 238 4.3 19:18:01 10° NW 19:23:13 51° NNW 19:23:13 51° NNW
NOSS 3-2 (A) 4.4 19:23:05 10° NW 19:28:31 53° NNW 19:28:31 53° NNW
ATLAS 3B R/B 4.1 19:25:17 10° NNW 19:28:32 27° NNW 19:28:32 27° NNW
Cosmos 1980 Rocket 4.4 19:51:49 10° W 19:55:14 21° WNW 19:55:14 21° WNW
